ITY235 LIML-LIEO

Flight info

Callsign ITY235
Flight time 0h 57m
Altitude 29000
Route ITCAP DCT OTMUV DCT UNITA DCT OLETI DCT TORTU DCT OKROK DCT AJO DCT CORSI
Aircraft A320/M-SDE3FGHIRWY/LB1

Departure

Time 2026-04-28 18:47
Airport Milano Linate Airport (LIML)

Arrival

Time 2026-04-28 19:44
Airport Olbia Costa Smeralda Airport (LIEO)
Time Latitude Longitude Altitude Speed Heading
2026-04-28 17:46 45.45976 9.28030 345 ft 0 kts 360°
2026-04-28 18:32 45.45975 9.28030 360 ft 1 kts 360°
2026-04-28 18:32 45.45960 9.28030 368 ft 3 kts 360°
2026-04-28 18:32 45.45940 9.28030 358 ft 3 kts 360°
2026-04-28 18:33 45.45922 9.28029 364 ft 3 kts 25°
2026-04-28 18:33 45.45909 9.28014 363 ft 3 kts 75°
2026-04-28 18:33 45.45906 9.27986 363 ft 2 kts 90°
2026-04-28 18:33 45.45907 9.27970 360 ft 3 kts 90°
2026-04-28 18:34 45.45907 9.27945 361 ft 1 kts 90°
2026-04-28 18:34 45.45907 9.27941 360 ft 0 kts 90°
2026-04-28 18:37 45.45898 9.27974 360 ft 4 kts 142°
2026-04-28 18:37 45.45881 9.27982 360 ft 5 kts 165°
2026-04-28 18:38 45.45836 9.27984 360 ft 6 kts 181°
2026-04-28 18:38 45.45794 9.27983 360 ft 7 kts 180°
2026-04-28 18:38 45.45721 9.27982 363 ft 12 kts 180°
2026-04-28 18:38 45.45645 9.27981 360 ft 10 kts 181°
2026-04-28 18:39 45.45578 9.27979 360 ft 9 kts 180°
2026-04-28 18:39 45.45516 9.27978 360 ft 11 kts 181°
2026-04-28 18:39 45.45424 9.27977 360 ft 13 kts 179°
2026-04-28 18:39 45.45344 9.27947 363 ft 11 kts 207°
2026-04-28 18:40 45.45280 9.27900 360 ft 10 kts 206°
2026-04-28 18:40 45.45221 9.27874 360 ft 8 kts 189°
2026-04-28 18:40 45.45169 9.27871 360 ft 7 kts 178°
2026-04-28 18:40 45.45105 9.27878 361 ft 14 kts 176°
2026-04-28 18:41 45.44995 9.27890 360 ft 16 kts 175°
2026-04-28 18:41 45.44881 9.27928 362 ft 17 kts 164°
2026-04-28 18:41 45.44758 9.27948 360 ft 19 kts 175°
2026-04-28 18:41 45.44623 9.27964 363 ft 20 kts 175°
2026-04-28 18:42 45.44476 9.27978 363 ft 22 kts 176°
2026-04-28 18:42 45.44321 9.27995 360 ft 23 kts 175°
2026-04-28 18:42 45.44159 9.28013 360 ft 24 kts 175°
2026-04-28 18:42 45.43987 9.28032 360 ft 25 kts 175°
2026-04-28 18:43 45.43807 9.28051 364 ft 27 kts 176°
2026-04-28 18:43 45.43656 9.28067 366 ft 18 kts 175°
2026-04-28 18:43 45.43527 9.28082 361 ft 16 kts 175°
2026-04-28 18:43 45.43451 9.28049 365 ft 9 kts 237°
2026-04-28 18:44 45.43444 9.27981 361 ft 5 kts 265°
2026-04-28 18:44 45.43444 9.27970 361 ft 0 kts 265°
2026-04-28 18:44 45.43443 9.27966 361 ft 3 kts 265°
2026-04-28 18:45 45.43441 9.27921 361 ft 4 kts 266°
2026-04-28 18:45 45.43440 9.27892 365 ft 1 kts 266°
2026-04-28 18:45 45.43443 9.27823 363 ft 9 kts 304°
2026-04-28 18:45 45.43489 9.27816 362 ft 0 kts 356°
2026-04-28 18:46 45.43498 9.27815 362 ft 8 kts 356°
2026-04-28 18:46 45.43821 9.27781 362 ft 85 kts 355°
2026-04-28 18:46 45.44627 9.27694 363 ft 145 kts 355°
2026-04-28 18:46 45.45743 9.27566 683 ft 168 kts 355°
2026-04-28 18:47 45.46945 9.27411 1265 ft 178 kts 354°
2026-04-28 18:47 45.48212 9.27283 1827 ft 192 kts
2026-04-28 18:47 45.49435 9.28166 2162 ft 212 kts 51°
2026-04-28 18:47 45.49935 9.30203 2517 ft 233 kts 95°
2026-04-28 18:48 45.49339 9.32409 2976 ft 253 kts 132°
2026-04-28 18:48 45.47974 9.34053 3757 ft 262 kts 144°
2026-04-28 18:48 45.46490 9.35595 4699 ft 266 kts 147°
2026-04-28 18:48 45.44820 9.36792 5570 ft 271 kts 158°
2026-04-28 18:49 45.43061 9.37815 6454 ft 276 kts 158°
2026-04-28 18:49 45.41857 9.38539 7015 ft 280 kts 156°
2026-04-28 18:49 45.39500 9.40110 8143 ft 285 kts 153°
2026-04-28 18:49 45.37729 9.41430 9012 ft 289 kts 151°
2026-04-28 18:50 45.35956 9.42836 9869 ft 293 kts 150°
2026-04-28 18:50 45.34150 9.44317 10366 ft 311 kts 149°
2026-04-28 18:50 45.32216 9.45931 10645 ft 333 kts 149°
2026-04-28 18:50 45.30186 9.47635 11205 ft 343 kts 149°
2026-04-28 18:51 45.28114 9.49370 11941 ft 349 kts 149°
2026-04-28 18:51 45.26009 9.51128 12682 ft 353 kts 149°
2026-04-28 18:51 45.23876 9.52908 13413 ft 358 kts 149°
2026-04-28 18:51 45.21775 9.54843 14077 ft 362 kts 150°
2026-04-28 18:52 45.19389 9.55964 14667 ft 365 kts 176°
2026-04-28 18:52 45.16877 9.55571 15284 ft 366 kts 198°
2026-04-28 18:52 45.14434 9.54516 15938 ft 369 kts 197°
2026-04-28 18:52 45.11940 9.53559 16586 ft 373 kts 195°
2026-04-28 18:53 45.09406 9.52683 17227 ft 377 kts 194°
2026-04-28 18:53 45.06842 9.51839 17855 ft 380 kts 194°
2026-04-28 18:53 45.04250 9.50995 18450 ft 384 kts 194°
2026-04-28 18:53 45.01628 9.50134 18984 ft 387 kts 194°
2026-04-28 18:54 44.98999 9.49256 19524 ft 391 kts 195°
2026-04-28 18:54 44.96344 9.48352 20061 ft 394 kts 195°
2026-04-28 18:54 44.93670 9.47436 20591 ft 397 kts 195°
2026-04-28 18:54 44.90976 9.46506 21104 ft 400 kts 195°
2026-04-28 18:55 44.88269 9.45568 21620 ft 403 kts 195°
2026-04-28 18:55 44.86458 9.44943 21962 ft 405 kts 195°
2026-04-28 18:55 44.82778 9.43683 22633 ft 409 kts 195°
2026-04-28 18:55 44.80001 9.42737 23134 ft 412 kts 195°
2026-04-28 18:56 44.77207 9.41790 23630 ft 415 kts 195°
2026-04-28 18:56 44.74389 9.40836 24047 ft 418 kts 195°
2026-04-28 18:56 44.71556 9.39875 24451 ft 420 kts 195°
2026-04-28 18:56 44.68700 9.38906 24863 ft 423 kts 195°
2026-04-28 18:57 44.65833 9.37934 25261 ft 426 kts 195°
2026-04-28 18:57 44.62939 9.36954 25657 ft 429 kts 195°
2026-04-28 18:57 44.60033 9.35971 26036 ft 431 kts 195°
2026-04-28 18:57 44.57100 9.34981 26416 ft 434 kts 195°
2026-04-28 18:58 44.54157 9.33988 26788 ft 437 kts 195°
2026-04-28 18:58 44.51197 9.32987 27148 ft 439 kts 195°
2026-04-28 18:58 44.48215 9.31983 27511 ft 442 kts 195°
2026-04-28 18:58 44.45216 9.30977 27862 ft 445 kts 195°
2026-04-28 18:59 44.42195 9.29964 28221 ft 447 kts 195°
2026-04-28 18:59 44.39199 9.28958 28568 ft 450 kts 195°
2026-04-28 18:59 44.36149 9.27933 28915 ft 453 kts 195°
2026-04-28 18:59 44.33038 9.26885 29251 ft 455 kts 195°
2026-04-28 19:00 44.29984 9.25861 29560 ft 458 kts 195°
2026-04-28 19:00 44.26838 9.24809 29884 ft 460 kts 194°
2026-04-28 19:00 44.23758 9.23782 30171 ft 462 kts 194°
2026-04-28 19:00 44.20580 9.22722 30437 ft 464 kts 194°
2026-04-28 19:01 44.17430 9.21669 30703 ft 466 kts 194°
2026-04-28 19:01 44.14267 9.20614 30970 ft 468 kts 194°
2026-04-28 19:01 44.11101 9.19558 31229 ft 470 kts 194°
2026-04-28 19:01 44.07916 9.18495 31583 ft 469 kts 194°
2026-04-28 19:02 44.04751 9.17442 31955 ft 468 kts 194°
2026-04-28 19:02 44.01586 9.16392 32314 ft 467 kts 194°
2026-04-28 19:02 43.98439 9.15355 32835 ft 462 kts 195°
2026-04-28 19:02 43.95319 9.14327 33018 ft 459 kts 195°
2026-04-28 19:03 43.89224 9.12317 33053 ft 445 kts 195°
2026-04-28 19:03 43.83210 9.10332 33048 ft 444 kts 195°
2026-04-28 19:04 43.77202 9.08360 33052 ft 444 kts 195°
2026-04-28 19:04 43.71190 9.06390 33050 ft 444 kts 195°
2026-04-28 19:05 43.65176 9.04418 33043 ft 444 kts 195°
2026-04-28 19:05 43.59161 9.02455 33035 ft 444 kts 195°
2026-04-28 19:06 43.54164 9.00826 33033 ft 444 kts 195°
2026-04-28 19:06 43.47139 8.98537 33030 ft 444 kts 195°
2026-04-28 19:07 43.41128 8.96579 33021 ft 444 kts 195°
2026-04-28 19:07 43.35007 8.95380 33021 ft 446 kts 186°
2026-04-28 19:08 43.28826 8.94679 33012 ft 446 kts 186°
2026-04-28 19:08 43.22631 8.93970 33017 ft 446 kts 186°
2026-04-28 19:09 43.16443 8.93249 33012 ft 446 kts 186°
2026-04-28 19:09 43.10254 8.92528 33013 ft 446 kts 186°
2026-04-28 19:10 43.04052 8.91815 33007 ft 447 kts 186°
2026-04-28 19:10 42.97860 8.91102 33008 ft 447 kts 186°
2026-04-28 19:11 42.91658 8.90385 33007 ft 447 kts 186°
2026-04-28 19:11 42.85459 8.89665 33012 ft 447 kts 186°
2026-04-28 19:12 42.79251 8.88950 33007 ft 447 kts 186°
2026-04-28 19:12 42.73048 8.88246 33005 ft 447 kts 186°
2026-04-28 19:13 42.66851 8.87548 33005 ft 446 kts 185°
2026-04-28 19:13 42.60666 8.86846 33001 ft 446 kts 185°
2026-04-28 19:14 42.54483 8.86146 33000 ft 446 kts 185°
2026-04-28 19:14 42.48289 8.85438 32984 ft 447 kts 185°
2026-04-28 19:15 42.42086 8.84732 32985 ft 448 kts 185°
2026-04-28 19:15 42.37935 8.84271 32985 ft 448 kts 185°
2026-04-28 19:16 42.29666 8.83329 32997 ft 448 kts 185°
2026-04-28 19:16 42.24464 8.82745 33002 ft 448 kts 185°
2026-04-28 19:17 42.18262 8.82050 33016 ft 447 kts 185°
2026-04-28 19:17 42.12063 8.81359 32819 ft 447 kts 185°
2026-04-28 19:18 42.08963 8.81013 32554 ft 447 kts 185°
2026-04-28 19:18 42.05872 8.80668 32294 ft 446 kts 185°
2026-04-28 19:18 42.02795 8.80326 32038 ft 444 kts 185°
2026-04-28 19:18 41.99715 8.79990 31783 ft 442 kts 185°
2026-04-28 19:19 41.96660 8.79655 31527 ft 439 kts 185°
2026-04-28 19:19 41.93619 8.79315 31277 ft 437 kts 185°
2026-04-28 19:19 41.90593 8.78969 31027 ft 435 kts 185°
2026-04-28 19:19 41.87593 8.78630 30757 ft 431 kts 185°
2026-04-28 19:20 41.84610 8.78296 30221 ft 428 kts 185°
2026-04-28 19:20 41.81644 8.77968 29602 ft 426 kts 185°
2026-04-28 19:20 41.78708 8.77648 29059 ft 421 kts 185°
2026-04-28 19:20 41.75804 8.77572 28518 ft 417 kts 177°
2026-04-28 19:21 41.72923 8.77828 27982 ft 412 kts 176°
2026-04-28 19:21 41.70074 8.78080 27464 ft 408 kts 176°
2026-04-28 19:21 41.67249 8.78326 26956 ft 404 kts 177°
2026-04-28 19:21 41.64468 8.78563 26458 ft 399 kts 177°
2026-04-28 19:22 41.61709 8.78798 25980 ft 395 kts 177°
2026-04-28 19:22 41.59896 8.78953 25664 ft 393 kts 177°
2026-04-28 19:22 41.56270 8.79263 25054 ft 387 kts 177°
2026-04-28 19:22 41.53592 8.79492 24599 ft 384 kts 177°
2026-04-28 19:23 41.50939 8.79718 24148 ft 380 kts 177°
2026-04-28 19:23 41.48319 8.79944 23695 ft 377 kts 177°
2026-04-28 19:23 41.45705 8.80171 23184 ft 374 kts 177°
2026-04-28 19:23 41.43125 8.80393 22731 ft 369 kts 177°
2026-04-28 19:24 41.40571 8.80613 22275 ft 366 kts 177°
2026-04-28 19:24 41.38046 8.80831 21826 ft 363 kts 177°
2026-04-28 19:24 41.35545 8.81170 21368 ft 361 kts 170°
2026-04-28 19:24 41.33143 8.82094 20908 ft 360 kts 159°
2026-04-28 19:25 41.30921 8.83616 20439 ft 359 kts 147°
2026-04-28 19:25 41.28902 8.85564 19976 ft 359 kts 144°
2026-04-28 19:25 41.26899 8.87535 19507 ft 358 kts 144°
2026-04-28 19:25 41.24892 8.89498 19040 ft 357 kts 145°
2026-04-28 19:26 41.22885 8.91453 18567 ft 357 kts 145°
2026-04-28 19:26 41.20882 8.93400 18091 ft 357 kts 144°
2026-04-28 19:26 41.18879 8.95344 17600 ft 355 kts 145°
2026-04-28 19:26 41.16890 8.97273 17135 ft 353 kts 145°
2026-04-28 19:27 41.14910 8.99194 16678 ft 351 kts 144°
2026-04-28 19:27 41.12946 9.01102 16246 ft 350 kts 144°
2026-04-28 19:27 41.10980 9.02996 15785 ft 350 kts 145°
2026-04-28 19:27 41.08989 9.04856 15308 ft 350 kts 146°
2026-04-28 19:28 41.07007 9.06675 15075 ft 342 kts 146°
2026-04-28 19:28 41.05098 9.08417 14958 ft 332 kts 146°
2026-04-28 19:28 41.03223 9.10131 14833 ft 323 kts 144°
2026-04-28 19:28 41.01667 9.12203 14652 ft 317 kts 123°
2026-04-28 19:29 41.00836 9.14888 14373 ft 315 kts 99°
2026-04-28 19:29 41.00753 9.16799 14168 ft 314 kts 84°
2026-04-28 19:29 41.01691 9.20401 13731 ft 312 kts 56°
2026-04-28 19:29 41.02925 9.22753 13361 ft 311 kts 54°
2026-04-28 19:30 41.04163 9.25094 13007 ft 310 kts 54°
2026-04-28 19:30 41.05398 9.27435 12664 ft 309 kts 55°
2026-04-28 19:30 41.06321 9.29973 12325 ft 307 kts 79°
2026-04-28 19:30 41.06235 9.32751 11998 ft 303 kts 109°
2026-04-28 19:31 41.05153 9.35087 11654 ft 298 kts 139°
2026-04-28 19:31 41.03496 9.36726 11274 ft 297 kts 147°
2026-04-28 19:31 41.01791 9.38272 10939 ft 297 kts 148°
2026-04-28 19:31 40.99911 9.39280 10696 ft 291 kts 175°
2026-04-28 19:32 40.97941 9.38935 10493 ft 287 kts 205°
2026-04-28 19:32 40.96381 9.37351 10309 ft 285 kts 232°
2026-04-28 19:32 40.95225 9.35216 10126 ft 286 kts 235°
2026-04-28 19:32 40.94093 9.33050 9944 ft 286 kts 236°
2026-04-28 19:33 40.92969 9.30890 9748 ft 284 kts 236°
2026-04-28 19:33 40.91853 9.28752 9576 ft 284 kts 235°
2026-04-28 19:33 40.90725 9.26599 9409 ft 283 kts 235°
2026-04-28 19:33 40.89605 9.24468 9202 ft 281 kts 235°
2026-04-28 19:34 40.88496 9.22356 8823 ft 279 kts 235°
2026-04-28 19:34 40.87387 9.20246 8457 ft 278 kts 235°
2026-04-28 19:34 40.86286 9.18154 8091 ft 276 kts 235°
2026-04-28 19:34 40.85191 9.16073 7732 ft 275 kts 234°
2026-04-28 19:35 40.84099 9.13999 7391 ft 274 kts 234°
2026-04-28 19:35 40.83013 9.11943 7090 ft 272 kts 234°
2026-04-28 19:35 40.81931 9.09903 7011 ft 271 kts 234°
2026-04-28 19:35 40.80846 9.07861 7022 ft 272 kts 234°
2026-04-28 19:36 40.79753 9.05813 7026 ft 272 kts 233°
2026-04-28 19:36 40.78413 9.04082 6846 ft 269 kts 211°
2026-04-28 19:36 40.76682 9.03227 6519 ft 267 kts 187°
2026-04-28 19:36 40.74845 9.03368 6148 ft 266 kts 164°
2026-04-28 19:37 40.73216 9.04503 6026 ft 268 kts 140°
2026-04-28 19:37 40.72377 9.05706 6031 ft 271 kts 125°
2026-04-28 19:37 40.71579 9.08832 6039 ft 275 kts 92°
2026-04-28 19:37 40.71889 9.11319 6030 ft 278 kts 74°
2026-04-28 19:38 40.72447 9.13761 6037 ft 279 kts 74°
2026-04-28 19:38 40.73005 9.16211 6031 ft 279 kts 74°
2026-04-28 19:38 40.73560 9.18661 6030 ft 278 kts 75°
2026-04-28 19:38 40.74106 9.21076 5576 ft 278 kts 74°
2026-04-28 19:39 40.74812 9.23437 5137 ft 272 kts 57°
2026-04-28 19:39 40.75901 9.25354 5018 ft 250 kts 52°
2026-04-28 19:39 40.76920 9.27145 4843 ft 241 kts 55°
2026-04-28 19:39 40.77883 9.28952 4522 ft 241 kts 56°
2026-04-28 19:40 40.78843 9.30780 4151 ft 243 kts 56°
2026-04-28 19:40 40.79809 9.32616 3772 ft 242 kts 56°
2026-04-28 19:40 40.80754 9.34408 3407 ft 233 kts 56°
2026-04-28 19:40 40.81665 9.36138 3054 ft 226 kts 57°
2026-04-28 19:41 40.82554 9.37829 2708 ft 220 kts 56°
2026-04-28 19:41 40.83403 9.39443 2412 ft 208 kts 58°
2026-04-28 19:41 40.84204 9.40965 2080 ft 196 kts 57°
2026-04-28 19:41 40.84956 9.42397 1767 ft 183 kts 58°
2026-04-28 19:42 40.85648 9.43714 1516 ft 167 kts 57°
2026-04-28 19:42 40.86286 9.44936 1216 ft 156 kts 57°
2026-04-28 19:42 40.86899 9.46059 961 ft 145 kts 56°
2026-04-28 19:42 40.87281 9.46783 839 ft 140 kts 57°
2026-04-28 19:43 40.87982 9.48166 575 ft 136 kts 57°
2026-04-28 19:43 40.88528 9.49195 392 ft 137 kts 57°
2026-04-28 19:43 40.89066 9.50228 166 ft 135 kts 59°
2026-04-28 19:43 40.89598 9.51241 43 ft 127 kts 58°
2026-04-28 19:44 40.90032 9.52081 34 ft 88 kts 55°
2026-04-28 19:44 40.90271 9.52531 33 ft 28 kts 55°
2026-04-28 19:44 40.90342 9.52659 34 ft 13 kts 41°
2026-04-28 19:44 40.90420 9.52685 34 ft 11 kts 344°
2026-04-28 19:45 40.90451 9.52605 34 ft 10 kts 275°
2026-04-28 19:45 40.90455 9.52520 34 ft 9 kts 269°
2026-04-28 19:45 40.90432 9.52453 34 ft 8 kts 236°
2026-04-28 19:45 40.90404 9.52400 34 ft 7 kts 235°
2026-04-28 19:46 40.90381 9.52355 34 ft 6 kts 235°
2026-04-28 19:46 40.90360 9.52316 34 ft 5 kts 235°
2026-04-28 19:46 40.90343 9.52283 34 ft 4 kts 235°
2026-04-28 19:46 40.90329 9.52256 34 ft 3 kts 235°
2026-04-28 19:47 40.90316 9.52232 34 ft 6 kts 235°
2026-04-28 19:47 40.90266 9.52137 34 ft 13 kts 235°
2026-04-28 19:47 40.90218 9.52044 34 ft 11 kts 235°
2026-04-28 19:47 40.90180 9.51960 34 ft 10 kts 249°
2026-04-28 19:48 40.90182 9.51875 34 ft 9 kts 282°
2026-04-28 19:48 40.90203 9.51804 34 ft 8 kts 314°
2026-04-28 19:48 40.90215 9.51751 34 ft 6 kts 243°
2026-04-28 19:48 40.90194 9.51708 34 ft 5 kts 237°
2026-04-28 19:49 40.90176 9.51672 34 ft 4 kts 233°
2026-04-28 19:49 40.90159 9.51643 34 ft 4 kts 235°
2026-04-28 19:49 40.90160 9.51615 34 ft 4 kts 302°
2026-04-28 19:49 40.90181 9.51593 34 ft 3 kts 324°
2026-04-28 19:50 40.90198 9.51576 34 ft 0 kts 324°